Corpus Christi Nas/Truax Field Information

FAA: NGP - ICAO: KNGP

Corpus Christi Nas/Truax Field (Airport) Location

State Texas
County Nueces
City Corpus Christi
Corpus Christi Nas/Truax Field (Airport) is 6 miles southeast of Corpus Christi, TX.
Latitude 27-41-33.7220N
Longitude 097-17-25.3580W
Elevation 18ft

Corpus Christi Nas/Truax Field METARs

METAR KNGP 121356Z 31004KT 10SM FEW020 FEW140 SCT180 BKN250 31/25 A2997 RMK AO2 SLP148 CB DSNT NE TCU DSNT E AND SE T2 SET T03060250
Altimeter 29.97"
Temperature 30.6°C (87.1°F)
Wind 310° at 4KT
Clouds few at 2,000ft few at 14,000ft scattered at 18,000ft broken at 25,000ft
Visibility 10.0mi
Time observed: 2022-08-12T13:56:00Z

Corpus Christi Nas/Truax Field (Airport) Details

Status Operational
Activation July 1943
Ownership Military - Navy
Usage Private
Chart BROWNSVILLE
ATC on-site Yes
Beacon schedule sunset-sunrise
Beacon color split clear green

Corpus Christi Nas/Truax Field (Airport) Contacts

Owner US NAVY
Owner address OCEANOGRAPHIC OFC-CODE 3142, WASHINGTON, DC 20373
Owner phone N/A
Manager GERRY SHORE
Manager address PO BOX 479, INEZ, TX 77968
Manager phone 361-676-0209

Corpus Christi Nas/Truax Field Radio Frequencies

Corpus Christi Nas/Truax Field (Airport) Radio Frequencies

UNICOM N/A
Common traffic advisory frequency (CTAF) 134.85